Regional Weather Roundup
Issued by NWS

Home | Current Version | Previous Version | Text Only | Print | Product List | Glossary On
Versions: 1 2 3 4 5 6 7 8 9 10 11 12 13 14 15 16 17 18 19 20 21 22 23 24 25 26 27 28
000
ASUS42 KFFC 231003
RWRGA
WEATHER ROUNDUP FOR GEORGIA
NATIONAL WEATHER SERVICE PEACHTREE CITY GA
600 AM EDT WED APR 23 2014

NOTE: "FAIR" INDICATES FEW OR NO CLOUDS BELOW 12,000 FEET WITH NO
SIGNIFICANT WEATHER AND/OR OBSTRUCTIONS TO VISIBILITY.

* = USE WITH CAUTION. THE STATIONS MARKED WITH AN ASTERISK MAY NOT
REPORT WEATHER SUCH AS PRECIPITATION, FOG, OR THUNDER AND ARE NOT
QUALITY CONTROLLED BY NWS.

THE REMARK "TC" DENOTES TEMPERATURE READING IN DEGREES CELSIUS.

GAZ001>058-231100-
NORTH GEORGIA

CITY           SKY/WX    TMP DP  RH WIND       PRES   REMARKS
ATLANTA        CLEAR     58  54  86 NW10      29.88R
ATHENS         CLEAR     58  57  97 NW5       29.84R FOG
CHAMBLEE       CLEAR     57  52  83 NW10      29.87R
PEACHTREE CITY CLEAR     55  54  96 W3        29.89R FOG
ROME           CLEAR     54  47  77 N6        29.91R
WEST ATLANTA   CLEAR     58  53  84 NW8       29.88R
GAINESVILLE    CLEAR     55  54  96 W6        29.87R FOG
CARTERSVILLE   CLEAR     53  52  96 CALM      29.91R FOG


CITY           SKY/WX    TMP DP  RH WIND       PRES   REMARKS
DALTON*        CLEAR     50  46  87 NW8       29.92R
MARIETTA       CLEAR     58  50  73 NW10      29.89R
$$

GAZ059>098-102>109-231100-
CENTRAL GEORGIA

CITY           SKY/WX    TMP DP  RH WIND       PRES   REMARKS
AUGUSTA-BUSH   FOG       52  50  93 S3        29.82R VSB 1/4
AUGUSTA-DANIEL CLEAR     61  59  93 NW6       29.82R
COLUMBUS       CLEAR     58  57  97 CALM      29.88R FOG
MACON          PTCLDY    56  56 100 NW6       29.86R FOG


CITY           SKY/WX    TMP DP  RH WIND       PRES   REMARKS
LAGRANGE*      FOG       60  60 100 NW5       29.89R VSB 3/4
SYLVANIA*      CLEAR     62  60  91 CALM      29.83R FOG
MILLEDGEVILLE* CLEAR     61 N/A N/A CALM      29.85R
$$

GAZ099>101-110>166-231100-
SOUTH GEORGIA

CITY           SKY/WX    TMP DP  RH WIND       PRES   REMARKS
SAVANNAH       CLOUDY    62  60  93 W7        29.83R FOG
VALDOSTA       CLEAR     62  57  83 CALM      29.88R
ALMA           CLEAR     61  58  90 SW5       29.85S FOG
ST SIMONS      LGT RAIN  63  61  93 W7        29.85R
FT STEWART     CLEAR     60  60 100 W6        29.82S
ALBANY         FOG       60  59  96 CALM      29.90S VSB 1
HUNTER AFB     CLEAR     59  59 100 W2        29.81R
MOODY AFB      PTCLDY    63  63  99 VRB1      29.87S
BRUNSWICK      CLEAR     63  61  94 W3        29.86R


CITY           SKY/WX    TMP DP  RH WIND       PRES   REMARKS
BAINBRIDGE*    CLEAR     63  63 100 CALM      29.89R
MOULTRIE*      CLEAR     61  61 100 CALM      29.89S
VIDALIA*       CLEAR     59  59 100 SW3       29.84S FOG
DOUGLAS*         N/A     61  61 100 W5        29.88S
$$



USA.gov is the U.S. government's official web portal to all federal, state and local government web resources and services.